THORAD AGENA D DEB, 4742

Orbit data source: Space-Track

THORAD AGENA D DEB, 4742 is space debris in SSO originally from a launch on Wed, 08 Apr 1970 UTC launched from the Air Force Western Test Range (AFWTR). Debris objects in space refer to the collection of defunct objects orbiting the Earth. Examples of debris include non-operational satellites, rocket bodies, and fragments generated from explosions, collisions, or faulty payload assembly.

Loading next visibility...
Identifier
4742, 1970-025CR
Orbit
SSO
Country
Flag of USUS
Related business
Manufacturer
Unknown
Mission
Spacecraft
Bus & Motor
Unknown
Mass
Unknown
Launch date (UTC)
1970-04-08 (56 years ago)
Launch vehicle
Unknown
Launch site
Air Force Western Test Range (AFWTR)
Object type
Payload
Rocket body
Debris
Shape & HBR
Unknown shape, 0.2 m
Radar Cross Section
Small (<0.1 m²)

Expand to show TLE details & history
Last TLE update: 7 hours ago

TLE from 7 hours ago
0 THORAD AGENA D DEB
1  4742U 70025CR  26124.18322807  .00000117  00000-0  23956-3 0  9994
2  4742 100.0124 192.9630 0018812 237.6789 139.7479 13.54388185764068
Epoch: 2026-05-04T04:23Z
TLE epoch observation values (Epoch: 2026-05-04T04:23:50.905Z)
Latitude
17.27941°
Longitude
-98.20724°
Altitude
1,069.03 km
Speed
7.314 km/s
True Right ascension
12h 39m 19s
True Declination
17° 11' 10"
Sunlit
Object was in full shadow at epoch
Visualization orbit readout
Latitude
Unknown
Longitude
Unknown
Altitude
Unknown
Speed
Unknown
Apparent Right ascension
Unknown
Apparent Declination
Unknown
Sunlit
N/A
Visualization observer readout
Local Sidereal Time
18:45:18
Azimuth
Unknown
Elevation
Unknown
Doppler factor
Unknown
Orbital elements
Apogee altitude
1,067.449 km
Perigee altitude
1,039.489 km
Semi-major axis
7,431.606 km
Eccentricity
0.00188
Inclination
100.0124°
RAAN
192.963°
Arg. of periapsis
237.6789°
True anomaly
139.88694°
Mean anomaly
139.7479°
Eccentric anomaly
139.81745°
Mean motion
3.38781 °/min
Orbital period
106.26 mins
BSTAR
0.00023956
Loading maneuver chart data...
Computing Atmospheric mass density...

Documentation

Showing up to 5 results
|